Wetterdaten am Flugplatz MSG Übersee

alte Datensätze gelöscht
140 aktuelle Wetterdateneinträge gefunden

Datum/Uhrzeit   Windrichtung/Grad    Geschw./kmh    Temp./C°    Luftdruck/mbar    Spannung/Volt   
2026-09-04 00:04 W/271 6 22 1026 12,24
2026-09-04 00:14 W/277 6 22 1026 12,26
2026-09-04 00:24 W/269 7 22 1026 12,29
2026-09-04 00:35 W/256 7 22 1026 12,32
2026-09-04 00:45 W/257 7 22 1026 12,33
2026-09-04 00:55 W/253 7 22 1026 12,36
2026-09-04 01:05 SW/246 7 22 1026 12,38
2026-09-04 01:15 SW/247 6 22 1026 11,99
2026-09-04 01:25 SW/247 7 22 1026 12,18
2026-09-04 01:35 SW/244 10 22 1026 12,23
2026-09-04 01:45 W/249 7 22 1025 12,26
2026-09-04 01:55 W/250 7 22 1026 12,29
2026-09-04 02:05 SW/238 12 22 1025 12,30
2026-09-04 02:15 SW/237 12 22 1025 12,32
2026-09-04 02:25 SW/235 10 22 1025 12,35
2026-09-04 02:35 SW/236 7 22 1025 12,36
2026-09-04 02:45 SW/232 6 22 1025 11,98
2026-09-04 02:55 SW/231 6 22 1025 12,16
2026-09-04 03:05 SW/230 6 22 1025 12,18
2026-09-04 03:16 SW/230 5 22 1025 12,21
2026-09-04 03:26 SW/230 7 22 1025 12,23
2026-09-04 03:36 SW/230 7 22 1025 12,27
2026-09-04 03:46 SW/230 6 22 1025 12,29
2026-09-04 03:56 SW/230 6 22 1025 12,30
2026-09-04 04:06 SW/230 6 22 1025 11,95
2026-09-04 04:16 SW/230 9 21 1025 12,13
2026-09-04 04:26 SW/225 9 21 1025 12,17
2026-09-04 04:36 SW/223 10 21 1025 12,20
2026-09-04 04:46 SW/222 7 21 1025 12,21
2026-09-04 04:56 SW/221 6 21 1024 12,24
2026-09-04 05:06 SW/221 7 21 1024 12,26
2026-09-04 05:16 SW/221 7 21 1024 12,29
2026-09-04 05:26 SW/221 8 21 1024 11,91
2026-09-04 05:36 SW/221 11 21 1025 12,11
2026-09-04 05:46 SW/220 9 21 1024 12,14
2026-09-04 05:57 SW/220 9 21 1024 12,17
2026-09-04 06:07 SW/213 12 21 1024 12,21
2026-09-04 06:17 SW/210 14 20 1024 12,23
2026-09-04 06:27 SW/217 12 20 1024 12,24
2026-09-04 06:37 SW/215 12 20 1024 11,86
2026-09-04 06:47 SW/218 12 20 1024 12,10
2026-09-04 06:57 SW/217 13 20 1024 12,13
2026-09-04 07:07 SW/225 13 20 1024 12,16
2026-09-04 07:17 SW/217 16 20 1024 12,18
2026-09-04 07:27 SW/212 19 20 1024 12,23
2026-09-04 07:37 SW/219 15 20 1024 12,23
2026-09-04 07:47 SW/221 16 21 1024 11,85
2026-09-04 07:57 SW/230 11 21 1024 12,11
2026-09-04 08:07 SW/239 4 21 1024 12,16
2026-09-04 08:17 SW/245 1 21 1025 12,20
2026-09-04 08:28 SW/235 3 21 1024 12,24
2026-09-04 08:38 SW/217 12 22 1024 12,30
2026-09-04 08:48 SW/214 13 22 1024 12,35
2026-09-04 08:58 SW/203 20 23 1024 12,40
2026-09-04 09:08 SW/208 17 24 1024 12,07
2026-09-04 09:18 SW/216 13 24 1024 12,27
2026-09-04 09:28 SW/218 9 25 1024 12,35
2026-09-04 09:38 SW/231 9 26 1024 12,48
2026-09-04 09:48 W/279 4 27 1024 12,57
2026-09-04 09:58 W/270 7 27 1024 12,62
2026-09-04 10:08 W/288 7 28 1024 12,54
2026-09-04 10:18 NW/294 6 29 1024 12,54
2026-09-04 10:28 NW/294 9 29 1024 12,57
2026-09-04 10:39 NW/308 11 30 1024 12,60
2026-09-04 10:49 NW/311 11 30 1024 12,60
2026-09-04 10:59 NW/307 8 30 1024 12,11
2026-09-04 11:09 W/283 8 31 1024 12,35
2026-09-04 11:19 NW/330 11 31 1024 12,38
2026-09-04 11:29 NW/329 11 31 1024 12,40
2026-09-04 11:39 NW/328 14 32 1024 12,42
2026-09-04 11:49 NW/332 15 32 1023 12,43
2026-09-04 11:59 NW/331 16 32 1023 12,45
2026-09-04 12:09 NW/322 12 32 1023 12,46
2026-09-04 12:19 NW/335 11 32 1023 12,49
2026-09-04 12:29 N/342 9 32 1023 12,51
2026-09-04 12:39 N/348 5 32 1023 12,52
2026-09-04 12:50 NO/58 6 32 1022 12,55
2026-09-04 13:00 N/13 11 32 1022 11,99
2026-09-04 13:10 N/8 14 32 1022 12,29
2026-09-04 13:20 N/8 12 32 1022 12,33
2026-09-04 13:30 N/339 13 32 1022 12,35
2026-09-04 13:40 NW/334 14 32 1021 12,38
2026-09-04 13:50 NW/329 14 32 1021 12,39
2026-09-04 14:00 N/339 15 32 1021 12,42
2026-09-04 14:10 N/343 13 32 1021 12,45
2026-09-04 14:20 N/348 11 32 1021 12,46
2026-09-04 14:30 N/4 9 32 1021 12,48
2026-09-04 14:40 N/357 8 33 1021 12,49
2026-09-04 14:50 NW/336 11 33 1020 12,49
2026-09-04 15:01 N/351 7 33 1020 12,52
2026-09-04 15:11 N/357 5 33 1020 12,04
2026-09-04 15:21 NO/41 5 33 1020 12,24
2026-09-04 15:31 NO/50 4 33 1020 12,27
2026-09-04 15:41 N/358 8 34 1020 12,30
2026-09-04 15:51 N/4 8 34 1019 12,33
2026-09-04 16:01 N/346 15 34 1019 12,35
2026-09-04 16:11 NW/336 17 33 1019 12,36
2026-09-04 16:21 NW/315 13 33 1019 12,38
2026-09-04 16:31 NW/319 15 33 1019 12,39
2026-09-04 16:41 NW/316 16 33 1019 12,40
2026-09-04 16:51 NW/311 14 33 1019 12,43
2026-09-04 17:02 NW/313 13 33 1019 12,45
2026-09-04 17:12 W/284 9 33 1019 12,46
2026-09-04 17:22 W/275 8 33 1019 12,48
2026-09-04 17:32 W/265 11 33 1018 12,49
2026-09-04 17:42 W/261 7 33 1018 11,99
2026-09-04 17:52 W/254 8 33 1018 12,24
2026-09-04 18:02 W/251 11 33 1018 12,32
2026-09-04 18:12 W/254 10 33 1018 12,36
2026-09-04 18:22 W/251 5 33 1018 12,38
2026-09-04 18:32 W/251 2 33 1018 12,40
2026-09-04 18:42 W/252 6 33 1018 12,42
2026-09-04 18:52 W/264 4 33 1018 12,45
2026-09-04 19:02 W/269 2 32 1018 12,46
2026-09-04 19:12 W/270 5 32 1018 12,48
2026-09-04 19:23 W/270 5 32 1018 12,49
2026-09-04 19:33 W/286 5 31 1018 12,51
2026-09-04 19:43 W/267 5 31 1018 11,99
2026-09-04 19:53 W/270 5 31 1018 12,24
2026-09-04 20:03 W/290 4 30 1019 12,27
2026-09-04 20:13 W/269 4 30 1019 12,30
2026-09-04 20:23 W/264 5 29 1019 12,33
2026-09-04 20:33 W/288 5 29 1019 12,35
2026-09-04 20:43 W/281 6 29 1019 12,38
2026-09-04 20:53 W/273 7 28 1019 12,39
2026-09-04 21:03 W/263 6 28 1019 12,40
2026-09-04 21:13 W/260 7 28 1019 12,42
2026-09-04 21:23 W/264 6 28 1019 12,05
2026-09-04 21:33 W/262 6 27 1020 12,21
2026-09-04 21:43 W/259 6 27 1020 12,26
2026-09-04 21:53 W/250 8 27 1019 12,29
2026-09-04 22:03 W/257 9 27 1019 12,30
2026-09-04 22:14 W/258 11 27 1019 12,32
2026-09-04 22:24 W/256 7 26 1020 12,35
2026-09-04 22:34 W/258 8 26 1020 12,36
2026-09-04 22:44 W/259 13 26 1020 12,38
2026-09-04 22:54 W/256 8 26 1019 12,40
2026-09-04 23:04 W/255 10 26 1020 12,42
2026-09-04 23:14 W/252 10 26 1019 12,01
2026-09-04 23:24 SW/247 7 26 1019 12,16